Location: Possagno
(45.8500°N, 11.8667°E)
Time: 20:09:07
(UTC+00:00)

Cosmos 2154 Rocket - Pass Details

Date: 07 June 2020
Orbit: 965 x 997 km, 82.9° (Epoch: 04 July)

Event Time Altitude Azimuth Distance (km) Brightness Sun altitude
Exits shadow 01:49:52 17° 212° (SSW) 2,278 5.3 -12.5°
Maximum altitude 01:54:38 51° 284° (WNW) 1,208 4.3 -12.0°
Drops below altitude 10° 02:00:42 10° 360° (N) 2,723 7.1 -11.4°
Sets 02:03:18 0° 5° (N) 3,671 8.0 -11.1°
